Theta_e
317 314 321 325 319 319 320 322 321 322 323 327 329 334 337 340 342 342 340 339 328 327 327 326 326 324 322 322 321 321 320 320 319 318 318 318 318 318 318 317 317 317 316 315 315 315 316 316 317
315 318 324 325 319 320 320 322 322 324 325 331 334 335 336 340 339 339 339 341 328 327 327 327 327 325 324 321 321 321 322 321 320 319 318 318 317 317 317 317 317 317 317 317 317 317 317 317 318
322 325 330 317 318 322 322 323 323 325 327 335 336 335 336 340 338 339 338 336 327 328 328 328 327 326 324 323 321 321 321 321 321 320 319 318 318 318 318 318 318 318 318 317 317 318 318 318 318
326 328 331 317 317 320 323 324 324 325 328 336 336 335 339 340 337 338 338 333 327 328 328 328 328 327 325 324 323 321 320 320 320 320 319 318 318 318 319 319 319 319 319 318 318 319 318 318 318
327 328 320 317 317 319 322 323 324 324 327 335 336 335 340 339 338 336 337 331 327 328 328 328 329 327 326 325 324 322 321 320 320 319 319 318 318 318 318 318 319 319 320 319 320 320 319 319 319
330 325 322 322 322 322 323 324 323 324 331 334 331 335 337 340 339 337 337 330 327 328 328 328 328 326 326 324 323 323 322 321 320 320 319 319 318 318 318 318 319 319 320 320 320 320 320 320 320
326 326 322 320 321 322 323 324 322 323 324 327 330 332 337 339 338 337 336 330 327 328 328 328 328 326 326 325 324 323 322 322 321 320 320 319 319 318 318 318 318 319 320 320 320 321 320 320 320
321 328 331 329 329 328 327 327 327 326 325 327 328 329 334 340 339 337 335 331 328 328 328 328 328 327 327 325 325 324 322 321 320 320 320 319 319 318 318 318 318 318 319 320 320 320 321 321 320
322 321 330 330 329 328 328 326 327 327 326 326 326 327 336 340 339 338 338 340 338 330 328 328 328 328 328 327 326 324 323 322 320 319 319 318 318 318 318 318 317 318 318 319 319 320 321 321 321
319 321 323 327 327 327 327 327 327 327 325 326 326 327 336 337 339 337 338 340 341 339 334 329 330 329 328 327 326 325 324 323 323 322 321 319 318 317 317 317 317 317 317 318 319 320 320 321 321
318 321 322 323 325 327 328 328 328 328 326 325 325 325 335 337 338 338 335 337 341 340 339 336 333 333 331 328 327 326 325 324 324 323 322 320 318 318 317 317 316 316 316 317 318 319 320 321 321
314 317 321 322 323 323 324 326 327 327 328 327 326 326 326 329 338 338 337 335 335 341 341 339 339 336 337 334 332 331 331 332 332 333 331 328 322 320 318 317 317 316 316 316 317 318 319 320 320
314 316 317 320 323 323 324 324 325 325 327 328 328 327 327 326 334 339 337 335 337 340 344 343 341 339 336 340 338 333 331 330 330 331 333 333 332 330 323 319 318 317 318 319 320 319 318 319 320
313 313 315 317 318 319 322 323 324 325 325 327 329 328 328 327 331 337 336 337 336 336 336 337 338 338 337 341 340 332 328 327 329 330 330 333 332 335 336 334 328 326 323 325 328 329 328 320 321
313 311 313 315 316 317 319 319 321 324 325 325 328 329 329 328 328 333 336 334 336 336 337 334 338 339 342 343 340 332 326 328 328 328 328 328 331 333 339 340 340 336 332 331 334 334 332 330 328
311 311 310 314 315 317 317 317 319 320 322 324 326 327 327 329 329 329 332 334 334 335 334 334 335 336 340 342 339 334 332 333 332 335 332 329 328 336 340 342 343 341 336 333 334 336 334 333 334
310 309 310 311 312 314 315 317 318 319 320 323 324 325 327 327 328 328 330 332 333 334 333 333 335 333 333 335 336 334 334 333 329 340 343 339 335 338 342 344 344 343 340 336 334 337 334 335 334
310 310 311 312 312 312 312 313 316 319 320 321 322 323 326 327 327 327 327 329 330 329 329 331 331 331 333 332 332 333 332 331 328 327 329 342 346 345 346 346 345 343 342 338 336 335 336 335 337
313 313 314 314 314 313 312 313 314 315 316 318 320 321 322 324 324 326 326 328 330 330 327 329 331 330 330 331 331 332 330 329 329 329 329 334 342 346 345 345 345 343 343 340 339 337 334 336 334
312 311 312 313 314 313 313 313 313 314 314 316 318 320 321 323 326 326 325 326 327 328 333 332 332 331 331 332 332 329 326 326 331 327 325 327 336 339 343 344 345 344 343 341 340 337 335 335 334
310 311 311 311 312 313 313 312 312 313 314 315 317 319 322 322 324 324 325 327 329 329 331 333 333 332 331 330 330 328 327 327 326 325 332 335 338 341 343 344 345 344 343 342 340 339 337 335 334
310 312 313 313 312 310 313 312 312 312 313 314 316 318 321 321 320 324 323 324 324 326 334 333 332 330 329 328 327 327 327 325 322 323 338 341 341 344 343 344 344 344 344 342 341 340 337 336 335
313 313 313 314 313 312 311 310 311 312 313 313 313 315 316 320 322 322 325 323 324 323 332 332 331 330 329 328 327 327 327 326 325 332 332 345 344 345 344 344 345 344 342 342 341 340 337 336 336
313 313 313 313 311 313 312 312 312 311 312 313 313 316 316 317 321 322 323 323 322 322 323 325 327 326 325 325 325 326 326 327 331 338 341 346 345 345 345 345 344 341 341 341 340 339 339 336 334
311 312 316 313 311 313 312 313 312 311 312 313 314 315 316 316 318 322 322 322 323 324 323 323 323 323 324 326 326 325 326 327 333 340 345 347 346 346 346 342 342 340 340 340 340 339 337 335 335
310 313 313 316 316 317 313 313 311 312 312 315 315 315 316 316 318 318 321 323 323 324 323 323 323 323 323 324 324 326 326 328 336 342 345 345 346 345 345 340 341 340 339 339 339 339 338 337 335
310 314 315 315 315 316 313 312 312 314 315 314 313 314 314 316 317 318 321 322 324 324 324 324 324 323 323 325 328 328 328 329 338 344 345 347 345 345 339 340 341 340 340 339 340 339 337 333 333
310 312 313 315 317 315 313 311 314 317 315 313 313 313 315 318 321 320 321 321 323 323 324 326 325 324 325 328 330 331 333 332 330 342 346 347 344 337 341 341 341 341 340 339 337 334 334 332 330
311 314 314 313 314 314 313 313 318 315 313 313 312 313 314 318 320 324 326 328 329 329 327 325 329 325 327 330 331 332 336 339 346 350 349 342 341 341 342 342 342 339 338 335 334 333 330 331 331
312 314 313 315 316 315 315 314 314 312 312 313 312 313 314 318 319 321 330 337 335 333 332 331 326 327 332 338 343 343 343 347 351 348 343 343 343 343 342 341 339 336 333 332 333 332 331 332 331
Wind_Speed
6 2 1 4 3 2 6 8 14 16 12 27 22 12 7 11 6 5 21 29 32 34 35 32 27 24 24 24 24 23 22 21 20 17 15 13 11 10 10 9 8 8 8 7 7 6 6 6 6
1 5 4 5 3 3 6 17 20 22 29 10 10 8 11 3 22 25 37 28 31 35 35 33 28 25 23 23 23 22 21 20 18 16 13 12 10 8 8 7 6 6 6 6 5 6 6 6 5
2 2 2 4 4 8 7 9 12 21 39 8 5 7 4 17 24 35 37 33 34 34 35 33 29 25 23 22 21 21 20 19 17 16 14 12 11 9 8 7 6 5 5 4 3 3 4 4 4
4 3 7 0 10 13 23 18 18 19 27 8 10 5 10 28 33 31 36 32 38 35 34 33 30 26 23 21 19 19 19 18 16 15 14 14 12 10 9 8 7 6 5 4 3 1 1 2 3
2 5 3 5 11 15 19 24 25 16 19 2 5 2 17 27 27 33 33 32 38 36 34 32 29 26 22 20 20 19 18 17 17 16 15 14 13 12 11 11 9 8 7 6 5 3 1 1 2
4 4 2 7 15 17 19 24 24 16 7 16 11 7 10 28 29 33 31 34 37 37 35 31 28 25 22 21 20 18 18 17 17 17 17 16 15 15 14 13 12 11 10 10 8 5 5 4 3
9 3 7 9 15 18 19 26 12 8 8 8 11 3 5 29 29 37 32 35 36 34 34 31 29 26 23 21 20 19 19 18 18 19 18 18 18 18 18 17 15 15 14 13 11 9 9 8 6
14 5 14 12 13 21 24 25 30 22 17 18 14 5 2 32 31 32 34 34 35 34 33 32 30 28 26 24 21 20 20 20 20 20 20 20 21 21 21 20 19 19 18 17 14 13 13 10 9
18 6 14 19 18 22 28 16 31 28 22 15 16 19 1 26 29 32 30 30 28 29 32 30 29 27 25 24 23 23 22 22 22 22 22 23 25 24 24 24 23 22 22 21 18 17 16 14 14
7 7 17 17 15 17 22 21 27 21 18 19 17 20 2 11 36 26 31 35 35 31 31 32 28 24 23 24 24 23 24 23 23 23 25 26 27 27 26 26 26 26 25 25 23 21 20 18 17
12 19 13 19 25 30 26 24 30 20 14 17 17 18 3 18 35 31 33 34 40 37 33 31 28 25 21 23 24 23 25 25 24 26 28 28 29 30 30 30 29 30 29 29 28 26 24 22 20
17 24 25 27 31 35 27 33 28 25 24 24 27 25 21 17 22 22 30 33 8 29 37 30 26 23 20 19 20 20 20 21 21 23 26 29 31 32 33 32 33 32 31 32 31 28 27 25 23
19 17 25 30 33 36 39 30 25 31 34 32 32 28 28 28 23 22 10 19 28 24 15 25 23 17 18 23 19 19 19 19 19 21 22 23 25 28 29 31 32 33 31 29 28 29 31 28 25
16 20 22 26 27 28 23 26 32 36 33 33 32 31 31 26 18 22 8 12 19 24 13 15 33 26 28 28 20 20 19 17 19 21 20 20 22 24 23 24 27 29 31 28 24 23 26 29 24
20 11 15 15 21 20 20 17 23 31 31 33 31 31 31 25 25 19 24 11 22 18 28 13 32 20 24 23 21 20 21 21 23 24 23 22 25 28 25 24 22 26 27 27 23 20 21 21 22
8 9 6 2 9 20 13 23 23 25 26 27 26 37 37 30 29 27 22 25 22 26 23 35 32 21 22 24 24 23 25 27 28 30 28 25 26 30 29 29 26 23 25 28 27 23 21 22 24
6 8 10 15 11 10 10 23 26 31 28 25 29 32 38 34 34 31 28 32 34 26 26 27 26 23 20 20 22 21 23 26 30 33 33 30 27 30 33 34 30 26 23 28 31 25 25 23 25
8 9 10 13 5 10 14 19 18 30 30 29 30 29 31 39 40 42 39 34 31 36 33 29 32 27 26 26 29 26 26 25 26 29 29 28 30 33 36 37 31 28 25 28 29 31 27 26 28
12 15 13 15 12 13 11 17 19 17 21 23 33 35 35 38 47 45 42 38 27 34 42 40 38 33 34 34 32 33 34 31 30 30 30 30 34 31 36 38 31 29 27 29 29 30 32 31 26
10 14 15 13 10 12 13 18 19 16 16 24 23 32 38 39 38 40 41 48 43 35 41 40 39 40 38 34 31 29 29 33 34 34 33 34 33 35 36 36 33 28 27 30 28 29 32 29 28
12 14 16 19 13 13 12 15 21 20 18 25 30 28 23 24 36 41 41 32 30 28 39 40 41 39 38 32 28 26 30 36 35 36 29 31 32 32 34 34 30 26 27 30 29 30 29 30 27
15 11 15 17 13 11 5 15 14 19 21 13 21 27 29 31 32 36 47 42 38 24 24 37 35 31 31 28 26 29 31 33 37 37 27 33 33 30 31 32 27 24 25 25 30 27 30 27 28
16 15 19 15 17 13 12 7 13 7 18 15 12 29 32 34 34 29 42 38 37 31 22 26 26 27 28 30 32 33 32 32 34 27 28 33 33 30 29 28 23 25 25 23 26 27 28 29 26
12 15 16 11 9 12 15 10 19 11 18 19 14 25 32 37 36 35 33 31 36 39 37 32 26 28 31 34 35 32 32 29 29 24 28 33 32 30 26 24 20 21 24 19 23 22 21 21 23
7 4 5 4 4 15 13 12 18 11 15 13 12 22 32 37 34 31 42 43 42 41 42 40 41 39 35 34 34 34 35 30 28 28 31 34 34 29 26 24 22 21 24 20 20 20 20 19 21
9 4 4 5 4 7 19 7 10 10 15 28 31 29 34 34 35 40 33 34 46 45 44 40 36 35 35 36 38 40 34 29 26 34 34 35 31 27 25 23 20 21 20 17 19 18 19 18 17
4 3 9 5 10 4 5 11 13 10 16 20 29 36 37 46 41 39 38 32 35 46 45 37 37 37 36 36 36 36 33 29 32 35 29 32 27 22 19 19 18 20 21 22 17 17 16 16 15
7 1 2 4 3 3 5 11 5 14 16 18 20 27 39 44 39 39 35 30 21 22 23 28 36 38 34 29 30 31 29 29 33 29 29 26 20 17 18 19 20 19 18 17 14 13 13 15 15
13 2 4 4 2 3 4 2 3 8 11 15 18 31 38 37 38 31 20 21 23 20 23 29 26 31 26 27 25 23 23 26 27 25 22 19 18 19 21 21 19 19 16 11 10 13 14 13 13
12 6 3 1 3 4 4 8 6 4 7 10 21 27 41 40 31 34 22 25 18 23 23 24 31 27 25 22 19 19 23 27 26 23 23 21 20 19 21 19 19 15 12 13 13 11 13 14 16
Wind_Direction
299 237 274 324 47 118 251 252 242 271 272 266 238 93 136 123 156 187 147 174 161 155 155 151 152 156 159 158 156 154 150 150 150 152 153 151 149 146 137 136 131 127 124 119 107 100 89 80 72
255 142 347 280 129 272 269 243 249 245 252 266 85 44 76 55 127 136 144 183 169 158 155 151 154 158 161 162 163 163 160 159 158 158 162 162 163 164 159 154 151 141 135 126 120 114 103 91 82
151 199 267 171 208 227 252 258 286 300 306 137 90 71 65 151 133 145 163 166 169 163 155 153 156 161 163 166 167 171 172 171 170 171 175 180 181 178 180 178 175 166 157 147 138 109 83 72 68
176 254 250 225 260 260 239 268 280 290 302 121 121 125 76 146 150 160 161 163 169 164 158 158 159 164 167 167 171 177 181 183 186 189 192 194 197 195 201 203 198 192 185 188 192 160 113 66 37
247 273 239 251 252 259 268 272 278 289 289 68 124 192 119 157 165 162 167 170 170 166 164 164 164 169 173 177 177 182 186 191 198 202 208 210 212 212 216 219 217 215 212 216 218 218 247 295 357
257 241 265 243 259 265 273 283 296 282 245 261 340 207 171 151 164 168 176 174 174 168 168 169 173 177 182 186 186 189 194 199 203 211 218 220 221 225 227 228 228 227 228 230 231 230 243 260 283
233 252 241 253 266 279 281 289 286 300 310 284 299 274 153 165 174 172 177 175 177 175 174 176 180 182 188 193 195 198 202 207 213 217 222 226 230 231 233 233 233 236 235 235 234 233 239 246 257
245 242 259 261 269 279 285 297 299 307 305 292 283 292 166 169 171 174 178 177 176 179 179 180 184 185 190 196 201 205 208 213 218 223 228 232 234 235 236 237 237 239 240 240 237 236 239 243 250
251 239 238 239 242 259 281 292 303 306 313 279 285 294 181 172 171 171 173 174 178 183 185 186 190 190 196 202 206 212 215 219 223 227 232 235 238 238 239 241 241 242 243 244 241 240 241 242 247
213 232 236 246 255 262 274 285 288 309 301 297 299 294 215 216 170 169 182 179 189 192 190 193 195 197 204 210 213 219 223 227 231 236 237 240 241 243 244 246 246 245 245 246 244 242 243 242 249
234 241 252 258 264 276 282 286 305 310 312 279 286 330 347 180 165 195 192 202 190 198 192 193 192 199 207 216 217 223 230 234 238 242 246 247 246 247 246 248 246 245 243 245 244 241 244 245 250
246 246 240 254 260 274 276 289 289 294 290 289 273 297 311 312 194 216 211 205 206 192 192 196 192 195 207 217 220 217 223 230 238 248 252 254 251 250 251 250 253 249 248 249 249 247 250 249 253
258 269 266 254 246 248 266 268 271 279 284 291 279 290 299 298 258 206 186 140 116 133 138 205 184 215 219 237 228 232 235 242 249 252 250 252 256 254 251 253 256 258 254 251 252 254 253 251 253
297 291 280 275 271 264 252 259 264 263 271 275 275 279 285 291 284 198 195 200 164 151 142 224 248 237 238 222 229 237 240 241 246 252 257 261 267 264 259 252 252 259 260 258 252 254 259 254 249
317 314 301 276 276 275 292 280 253 262 263 263 273 272 273 274 281 245 231 232 226 235 250 230 245 217 216 211 227 235 244 244 246 252 257 263 270 274 270 268 256 254 259 257 254 251 257 251 243
294 283 287 313 280 259 263 271 267 270 268 262 266 268 269 266 272 284 242 225 221 226 219 203 216 209 220 215 214 223 236 237 244 247 251 256 265 271 272 270 266 260 250 247 252 248 246 245 243
244 259 259 277 259 268 235 257 264 266 266 256 256 254 262 263 263 265 260 247 230 208 207 197 204 206 213 228 234 246 252 250 247 239 244 249 258 266 268 266 262 260 249 243 240 245 241 241 234
256 267 269 265 276 250 264 261 268 254 247 248 253 256 253 258 258 262 265 263 253 233 236 239 230 222 213 231 243 247 251 255 251 248 249 247 250 255 257 258 253 252 251 242 236 235 242 242 231
277 284 290 300 322 324 301 291 292 295 302 266 242 243 250 250 256 261 263 256 265 260 246 244 236 230 236 231 232 243 249 253 254 255 259 255 245 249 256 252 248 245 252 244 234 235 235 239 235
316 308 297 287 292 296 300 293 293 294 291 294 286 245 235 241 242 247 263 258 262 265 245 233 231 230 232 229 235 240 246 253 258 266 268 264 252 244 248 249 244 244 246 236 234 232 234 239 240
305 293 297 290 290 269 284 283 293 289 278 285 289 280 271 258 243 237 246 253 254 279 252 234 225 220 227 236 236 242 249 252 258 258 254 250 247 246 245 250 243 243 247 234 232 232 233 236 234
291 300 308 313 304 273 258 279 270 293 293 292 287 285 282 275 267 259 242 246 254 271 256 230 217 220 230 238 244 243 242 254 260 253 246 240 241 239 248 250 247 242 243 231 234 232 232 235 236
314 325 310 305 298 307 275 273 279 273 285 282 278 285 294 288 269 265 241 240 248 250 233 223 223 227 231 241 250 255 251 265 263 258 247 230 232 240 244 242 239 246 223 227 232 230 234 240 233
323 320 289 297 272 271 271 253 273 266 268 281 282 286 282 279 281 255 251 245 251 258 243 237 235 240 247 252 251 255 259 258 254 242 235 229 232 234 239 239 228 220 213 224 229 234 234 242 234
337 9 332 301 242 257 261 252 252 256 258 276 296 292 285 278 283 283 259 255 245 248 248 248 248 251 247 248 248 254 253 255 243 232 230 226 229 231 234 232 215 210 216 222 232 223 228 227 220
262 170 177 288 291 301 307 274 265 303 308 2 342 321 295 292 292 282 282 261 240 238 245 248 250 252 251 250 252 248 246 247 228 226 231 235 238 246 237 229 215 209 210 219 217 214 221 222 227
294 245 221 252 259 252 228 278 276 19 7 0 350 337 329 328 314 278 279 274 244 238 237 237 238 238 241 241 240 232 234 232 218 225 232 236 238 238 231 205 194 186 201 208 214 209 213 222 228
196 213 127 200 264 297 296 304 318 2 350 345 342 337 326 325 324 284 265 255 246 219 223 225 232 231 230 223 219 222 223 224 230 226 227 226 234 210 185 177 178 188 188 194 202 217 223 230 228
307 8 61 268 232 230 295 275 32 11 346 338 325 329 319 311 326 311 280 240 225 220 220 226 224 216 203 205 209 217 218 217 210 210 214 203 177 173 177 178 175 174 175 195 221 229 222 224 229
295 44 94 129 313 244 237 273 139 112 11 342 318 324 310 310 325 318 310 297 225 230 218 209 197 194 193 196 201 207 196 191 193 196 190 174 171 170 172 166 165 167 187 215 227 232 237 237 242